Weather in Pokrovo-Chicherino

Russia / Tambov Oblast     52°38′33″N   40°22′15″E
temp.,
°C
wind,
m/s
gust,
m/s
humid.,
%
clouds,
%
prec.,
mm/h
press.,
hPa
HPBL,
m
6 march, sat
sat600:00−7wnw239471 0.0 101525
03:00−8nw129485 0.0 101621
06:00−9w1196100 0.0 101521
09:00−7nw2294100 0.0 101688
12:00−5w1291100 0.1 1016252
15:00−4nw4591100 0.8 1015493
18:00−6nw4894100 0.5 1016435
21:00−10wnw359469 0.5 101777
7 march, sun
sun700:00−11w46920 0.0 1017116
03:00−12wsw46930 0.0 1017111
06:00−12sw410913 0.0 1015211
09:00−8sw7148444 0.0 1012605
12:00−4sw91678100 0.0 10081027
15:00−2sw111981100 0.1 10041290
18:00−2wsw111991100 0.8 10001221
21:00−4nw61375100 1.9 1000769
8 march, mon
mon800:00−8wsw498695 0.0 1002150
03:00−8wsw5119175 0.0 1002281
06:00−7sw6158246 0.0 1000472
09:00−5w9159060 0.1 10011440
12:00−7w7118033 0.1 1003808
15:00−6w698660 0.1 1006747
18:00−8wnw4108393 0.1 1007296
21:00−10w499178 0.1 1010191
9 march, tue
tue900:00−11w479423 0.0 1011139
03:00−13wnw349652 0.1 101266
06:00−14nw239762 0.0 101436
09:00−13nw249342 0.0 1015185
12:00−9nnw348383 0.0 1015586
15:00−9nnw348092 0.0 1016694
18:00−12nw3688100 0.0 1017184
21:00−15nw349282 0.0 102084
10 march, wed
wed1000:00−16nw34940 0.0 102187
03:00−18nw34940 0.0 102357
06:00−19nw34950 0.0 102363
09:00−17nw359118 0.0 1024273
12:00−14nnw247899 0.0 1025570
15:00−13ene228799 0.1 1024317
18:00−16ene2394100 0.3 1024104
21:00−20ne349067 0.3 102681